Regional Weather Roundup
Issued by NWS

Home | Current Version | Previous Version | Graphics & Text | Print | Product List | Glossary Off
Versions: 1 2 3 4 5 6 7 8 9 10 11 12 13 14 15 16 17 18 19 20 21 22 23 24 25 26 27 28 29 30 31 32 33 34 35 36 37 38 39 40 41 42 43 44 45 46 47 48 49 50

000
ASUS43 KTOP 270459
RWRKS

WEATHER ROUNDUP FOR KANSAS
NATIONAL WEATHER SERVICE GOODLAND KS
1200 AM CDT WED JUL 27 2016

NOTE:  "FAIR" INDICATES FEW OR NO CLOUDS BELOW 12,000 FEET WITH NO
SIGNIFICANT WEATHER AND/OR OBSTRUCTIONS TO VISIBILITY.

KSZ001>006-013>018-027>032-041>047-270600-
NORTHWEST KANSAS

CITY           SKY/WX    TMP DP  RH WIND       PRES   REMARKS
GOODLAND       CLOUDY    73  55  53 S16       30.07F
HAYS           CLOUDY    75  63  64 SE3       30.03S
HILL CITY      CLOUDY    79  66  64 S7        30.00F
RUSSELL        PTCLDY    74  69  85 SE8       30.01F
$$

KSZ061>065-074>080-084>089-270600-
SOUTHWEST KANSAS

CITY           SKY/WX    TMP DP  RH WIND       PRES   REMARKS
DODGE CITY     CLEAR     71  66  84 SE5       30.06R
ELKHART          N/A     74  65  74 SE13        N/A
GARDEN CITY    CLEAR     73  66  78 NE7       30.09R
GREAT BEND     CLEAR     73  64  73 SE6       30.02S
LIBERAL        CLEAR     73  64  73 S7        30.08R
$$

KSZ066>073-081>083-090>101-270600-
SOUTHEAST KANSAS

CITY           SKY/WX    TMP DP  RH WIND       PRES   REMARKS
CHANUTE        CLEAR     73  71  93 SE3       29.97F
COFFEYVILLE    CLEAR     73  72  96 CALM      29.96F
HUTCHINSON     CLEAR     75  71  87 E5        30.01R
NEWTON         CLEAR     74  72  93 E6        30.02R
PARSONS        CLEAR     73  71  93 CALM      29.98F
WICHITA INTL   PTCLDY    78  72  81 SE7       29.99R
WICHITA JABRA  CLEAR     75  72  90 SE5       30.00R
WINFIELD       PTCLDY    77  73  87 E5        29.99S
$$

KSZ007>012-019>026-033>040-048>060-102>105-270600-
NORTHEAST KANSAS

CITY           SKY/WX    TMP DP  RH WIND       PRES   REMARKS
CONCORDIA      PTCLDY    72  67  84 S7        30.02R
EMPORIA        CLEAR     74  70  87 CALM      30.00R
LAWRENCE       CLEAR     69  67  93 NW5       29.99S
MANHATTAN      CLEAR     71  69  93 CALM      30.00R FOG
OLATHE IND     CLEAR     74  68  81 NE3       30.00F
OLATHE EXE     CLEAR     74  67  78 NE5       30.00S
SALINA         CLEAR     75  68  78 SE5       30.01R
TOPEKA BILLARD CLEAR     74  69  85 CALM      29.99S
TOPEKA FORBES  CLEAR     74  69  85 CALM      30.00S
$$




USA.gov is the U.S. government's official web portal to all federal, state and local government web resources and services.